{"data":{"norad_id":59878,"epoch":"2026-09-21T07:22:23.494368Z","epoch_age_seconds":104744,"freshness":"FRESH","line1":"1 59878U 24098W   26264.30721637  .00101821  00000+0  61568-3 0  9990","line2":"2 59878  42.9835 224.3421 0025581 147.8629 212.3806 15.76082465131445","mean_motion":15.76082465,"eccentricity":0.0025581,"inclination_deg":42.9835,"raan_deg":224.3421,"arg_perigee_deg":147.8629,"mean_anomaly_deg":212.3806,"bstar":0.00061568,"rev_number":13144,"period_min":91.365777614942,"perigee_km":324.36302648043,"apogee_km":358.74230274251,"semimajor_km":6719.6896646115,"source":"CELESTRAK","updated_at":"2026-09-22T09:00:49.104542Z"}}